Weather History for Bentonville, AR

Change the Weather History Date:

Wednesday, October 24, 2012

  Actual Average Record
Temperature  
Mean Temperature 71 °F -  
Max Temperature 80 °F 66 °F 84 °F (1950)
Min Temperature 62 °F 44 °F 25 °F (1981)
Cooling Degree Days 6    
Growing Degree Days 21 (Base 50)    
Moisture  
Dew Point 61 °F    
Average Humidity 68    
Maximum Humidity 88    
Minimum Humidity 54    
Precipitation  
Precipitation 0.00 in - - ()
Sea Level Pressure  
Sea Level Pressure 29.91 in    
Wind  
Wind Speed 9 mph (South)    
Max Wind Speed 20 mph    
Max Gust Speed 26 mph    
Visibility 10 miles    
Events      
Averages and records for this station are not official NWS values.
T = Trace of Precipitation, MM = Missing Value Source: NWS Daily Summary

Daily Weather History Graph

Daily Weather History Graph

Search for Another Location

Airport:

Trip Planner

Search our weather history database for the weather conditions in past years. The results will help you decide how hot, cold, wet, or windy it might be!

Date:

Astronomy

Oct. 24, 2012 Rise Set
Actual Time 7:32 AM CDT 6:28 PM CDT
Civil Twilight 7:06 AM CDT 6:55 PM CDT
Nautical Twilight 6:36 AM CDT 7:25 PM CDT
Astronomical Twilight 6:06 AM CDT 7:55 PM CDT
Moon 3:38 PM CDT (10/24) 2:36 AM CDT (10/24)
Length of Visible Light 11h 48m
Length of Day
10h 56m
Waxing Gibbous, 76% of the Moon is Illuminated
Oct 24
Waxing Gibbous
Oct 29
Full
Nov 6
Last Quarter
Nov 13
New
Nov 20
First Quarter

Hourly Weather History & Observations

Time (CDT) Temp. Heat Index Dew Point Humidity Pressure Visibility Wind Dir Wind Speed Gust Speed Precip Events Conditions
12:15 AM 71.6 °F - 60.8 °F 69% 29.92 in 10.0 mi South 9.2 mph - N/A   Overcast
1:15 AM 69.8 °F - 60.8 °F 73% 29.93 in 10.0 mi South 9.2 mph - N/A   Partly Cloudy
1:35 AM 69.8 °F - 60.8 °F 73% 29.93 in 10.0 mi South 8.1 mph - N/A   Partly Cloudy
1:55 AM 69.8 °F - 60.8 °F 73% 29.93 in 10.0 mi South 8.1 mph - N/A   Clear
2:15 AM 68.0 °F - 60.8 °F 78% 29.93 in 10.0 mi South 6.9 mph - N/A   Partly Cloudy
2:35 AM 68.0 °F - 60.8 °F 78% 29.93 in 10.0 mi South 6.9 mph - N/A   Clear
2:56 AM 66.2 °F - 60.8 °F 83% 29.93 in 10.0 mi South 5.8 mph - N/A   Clear
3:15 AM 66.2 °F - 60.8 °F 83% 29.93 in 10.0 mi South 6.9 mph - N/A   Clear
3:35 AM 64.4 °F - 60.8 °F 88% 29.93 in 10.0 mi SSE 5.8 mph - N/A   Clear
3:55 AM 64.4 °F - 59.0 °F 83% 29.93 in 10.0 mi SSE 5.8 mph - N/A   Clear
4:15 AM 64.4 °F - 59.0 °F 83% 29.94 in 10.0 mi SSE 4.6 mph - N/A   Clear
4:35 AM 64.4 °F - 59.0 °F 83% 29.94 in 10.0 mi SSE 4.6 mph - N/A   Partly Cloudy
5:15 AM 62.6 °F - 59.0 °F 88% 29.95 in 10.0 mi SSE 4.6 mph - N/A   Partly Cloudy
5:35 AM 62.6 °F - 59.0 °F 88% 29.95 in 10.0 mi SSE 4.6 mph - N/A   Scattered Clouds
6:15 AM 64.4 °F - 60.8 °F 88% 29.95 in 10.0 mi South 5.8 mph - N/A   Mostly Cloudy
6:35 AM 64.4 °F - 60.8 °F 88% 29.96 in 10.0 mi South 4.6 mph - N/A   Partly Cloudy
7:15 AM 62.6 °F - 59.0 °F 88% 29.96 in 10.0 mi South 4.6 mph - N/A   Clear
7:35 AM 62.6 °F - 59.0 °F 88% 29.96 in 10.0 mi South 5.8 mph - N/A   Clear
8:15 AM 64.4 °F - 60.8 °F 88% 29.96 in 10.0 mi South 5.8 mph - N/A   Clear
8:35 AM 66.2 °F - 60.8 °F 83% 29.96 in 10.0 mi South 8.1 mph - N/A   Partly Cloudy
8:55 AM 68.0 °F - 60.8 °F 78% 29.97 in 10.0 mi South 6.9 mph - N/A   Clear
9:15 AM 69.8 °F - 60.8 °F 73% 29.97 in 10.0 mi South 9.2 mph - N/A   Clear
9:35 AM 71.6 °F - 60.8 °F 69% 29.97 in 10.0 mi SSW 12.7 mph 18.4 mph N/A   Clear
9:55 AM 71.6 °F - 60.8 °F 69% 29.98 in 10.0 mi SSW 11.5 mph 18.4 mph N/A   Clear
10:16 AM 71.6 °F - 62.6 °F 73% 29.97 in 10.0 mi SSW 13.8 mph 20.7 mph N/A   Clear
10:35 AM 73.4 °F - 62.6 °F 69% 29.97 in 10.0 mi SSW 10.4 mph 19.6 mph N/A   Clear
10:55 AM 75.2 °F - 62.6 °F 65% 29.97 in 10.0 mi SSW 11.5 mph 20.7 mph N/A   Clear
11:35 AM 77.0 °F - 62.6 °F 61% 29.96 in 10.0 mi South 15.0 mph 21.9 mph N/A   Clear
11:55 AM 77.0 °F - 62.6 °F 61% 29.96 in 10.0 mi SSW 19.6 mph 26.5 mph N/A   Clear
12:15 PM 78.8 °F - 62.6 °F 57% 29.96 in 10.0 mi South 16.1 mph 26.5 mph N/A   Clear
12:35 PM 78.8 °F - 62.6 °F 57% 29.94 in 10.0 mi South 16.1 mph 19.6 mph N/A   Clear
12:55 PM 78.8 °F - 62.6 °F 57% 29.93 in 10.0 mi SSW 10.4 mph - N/A   Clear
1:15 PM 78.8 °F - 62.6 °F 57% 29.93 in 10.0 mi South 15.0 mph 24.2 mph N/A   Partly Cloudy
1:36 PM 78.8 °F - 62.6 °F 57% 29.92 in 10.0 mi South 15.0 mph 24.2 mph N/A   Scattered Clouds
1:55 PM 78.8 °F - 62.6 °F 57% 29.91 in 10.0 mi South 16.1 mph 23.0 mph N/A   Partly Cloudy
2:15 PM 80.6 °F 81.8 °F 62.6 °F 54% 29.91 in 10.0 mi SSW 13.8 mph 21.9 mph N/A   Partly Cloudy
2:35 PM 80.6 °F 81.8 °F 62.6 °F 54% 29.90 in 10.0 mi South 13.8 mph 20.7 mph N/A   Scattered Clouds
2:56 PM 80.6 °F 81.8 °F 62.6 °F 54% 29.89 in 10.0 mi South 11.5 mph 19.6 mph N/A   Scattered Clouds
3:15 PM 78.8 °F - 62.6 °F 57% 29.89 in 10.0 mi South 13.8 mph 21.9 mph N/A   Mostly Cloudy
3:35 PM 78.8 °F - 62.6 °F 57% 29.88 in 10.0 mi South 11.5 mph 19.6 mph N/A   Scattered Clouds
4:15 PM 78.8 °F - 62.6 °F 57% 29.87 in 10.0 mi South 13.8 mph 18.4 mph N/A   Mostly Cloudy
4:35 PM 78.8 °F - 60.8 °F 54% 29.87 in 10.0 mi SSE 15.0 mph 19.6 mph N/A   Overcast
4:55 PM 78.8 °F - 60.8 °F 54% 29.87 in 10.0 mi South 13.8 mph 21.9 mph N/A   Partly Cloudy
5:15 PM 78.8 °F - 60.8 °F 54% 29.87 in 10.0 mi South 13.8 mph 24.2 mph N/A   Clear
5:35 PM 75.2 °F - 60.8 °F 61% 29.86 in 10.0 mi South 10.4 mph 20.7 mph N/A   Clear
5:55 PM 75.2 °F - 60.8 °F 61% 29.86 in 10.0 mi South 5.8 mph - N/A   Clear
6:15 PM 75.2 °F - 59.0 °F 57% 29.87 in 10.0 mi South 12.7 mph 16.1 mph N/A   Clear
6:35 PM 73.4 °F - 59.0 °F 61% 29.87 in 10.0 mi South 11.5 mph 19.6 mph N/A   Clear
6:56 PM 73.4 °F - 59.0 °F 61% 29.87 in 10.0 mi South 9.2 mph - N/A   Clear
7:15 PM 73.4 °F - 59.0 °F 61% 29.87 in 10.0 mi South 10.4 mph - N/A   Clear
7:35 PM 73.4 °F - 59.0 °F 61% 29.86 in 10.0 mi South 11.5 mph 16.1 mph N/A   Clear
7:56 PM 71.6 °F - 59.0 °F 64% 29.86 in 10.0 mi South 9.2 mph - N/A   Clear
8:15 PM 71.6 °F - 59.0 °F 64% 29.86 in 10.0 mi South 9.2 mph - N/A   Clear
8:36 PM 71.6 °F - 59.0 °F 64% 29.86 in 10.0 mi South 8.1 mph - N/A   Clear
8:55 PM 71.6 °F - 59.0 °F 64% 29.86 in 10.0 mi South 13.8 mph 20.7 mph N/A   Clear
9:15 PM 71.6 °F - 57.2 °F 60% 29.86 in 10.0 mi South 13.8 mph 23.0 mph N/A   Clear
9:55 PM 71.6 °F - 57.2 °F 60% 29.85 in 10.0 mi South 10.4 mph 18.4 mph N/A   Clear
10:15 PM 71.6 °F - 59.0 °F 64% 29.85 in 10.0 mi South 12.7 mph 19.6 mph N/A   Clear
10:35 PM 71.6 °F - 59.0 °F 64% 29.84 in 10.0 mi South 12.7 mph 18.4 mph N/A   Clear
10:55 PM 71.6 °F - 59.0 °F 64% 29.84 in 10.0 mi South 16.1 mph 20.7 mph N/A   Clear
11:15 PM 71.6 °F - 59.0 °F 64% 29.83 in 10.0 mi South 10.4 mph 18.4 mph N/A   Clear
11:55 PM 71.6 °F - 60.8 °F 69% 29.82 in 10.0 mi South 13.8 mph 18.4 mph N/A   Clear